This demonstration page uses our WeatherBlox Daily Observations layout. Learn more.

Left ArrowRight Arrow

39.92423, -83.80882

Hourly Observations for November 2, 2020

Temp ( °F °C ) Dew Point ( °F °C ) Humidity (%) Winds ( mph kmh ) Pressure ( in mb ) Visibility ( mi km ) Precip ( " mm )
12:56 am 00:56 Clear 30 -1.1 23 -5 75 75 W 10 17 30.32 1027 10 16 N/A
1:56 am 01:56 Clear 30 -1.1 23 -5 75 75 W 10 17 30.34 1027 10 16 N/A
2:56 am 02:56 Clear 29 -1.7 23 -5 78 78 W 10 17 30.35 1028 10 16 0.01 0.25
3:56 am 03:56 Clear 28 -2.2 23 -5 81 81 W 8 13 30.35 1028 10 16 N/A
4:56 am 04:56 Clear 28 -2.2 23 -5 81 81 W 12 19 30.37 1028 10 16 0.01 0.25
5:56 am 05:56 Clear 27 -2.8 23 -5 85 85 W 9 15 30.38 1029 10 16 N/A
6:56 am 06:56 Clear 26 -3.3 23 -5 88 88 W 9 15 30.39 1029 10 16 0.01 0.25
7:56 am 07:56 Sunny 29 -1.7 24 -4.4 82 82 W 12 19 30.40 1030 10 16 N/A
8:56 am 08:56 Sunny 33 0.6 23 -5 66 66 W 9 15 30.41 1030 10 16 0.01 0.25
9:56 am 09:56 Sunny 37 2.8 24 -4.4 59 59 WNW 12 19 30.40 1030 10 16 N/A
10:56 am 10:56 Sunny 39 3.9 24 -4.4 55 55 W 12 19 30.38 1029 10 16 N/A
11:56 am 11:56 Sunny 42 5.6 22 -5.6 45 45 WSW 14 22 30.36 1028 10 16 N/A
12:56 pm 12:56 Sunny 44 6.7 20 -6.7 38 38 WSW 14 22 30.32 1027 10 16 N/A
1:56 pm 13:56 Sunny 46 7.8 16 -8.9 30 30 W 14 22 30.28 1026 10 16 N/A
2:56 pm 14:56 Sunny 47 8.3 14 -10 26 26 W 13 20 30.26 1025 10 16 N/A
3:56 pm 15:56 Sunny 47 8.3 15 -9.4 28 28 WSW 18 30 30.26 1025 10 16 N/A
4:56 pm 16:56 Sunny 45 7.2 14 -10 29 29 WSW 15 24 30.24 1024 10 16 0.01 0.25
5:56 pm 17:56 Clear 41 5 16 -8.9 36 36 WSW 9 15 30.24 1024 10 16 N/A
6:56 pm 18:56 Clear 41 5 17 -8.3 38 38 WSW 10 17 30.23 1024 10 16 N/A
7:56 pm 19:56 Clear 40 4.4 18 -7.8 41 41 SW 13 20 30.21 1023 10 16 N/A
8:56 pm 20:56 Clear 40 4.4 18 -7.8 41 41 WSW 13 20 30.20 1023 10 16 N/A
9:56 pm 21:56 Clear 40 4.4 18 -7.8 41 41 WSW 14 22 30.20 1023 10 16 N/A
10:56 pm 22:56 Clear 40 4.4 18 -7.8 41 41 WSW 12 19 30.19 1023 10 16 N/A
11:56 pm 23:56 Clear 40 4.4 19 -7.2 43 43 WSW 16 26 30.18 1022 10 16 N/A

Powered by AerisWeather